Weather History for KAXS - November, 2012

Change the Weather History Date:

Thursday, November 22, 2012

  Actual Average (KLTS) Record (KLTS)
Temperature  
Mean Temperature 66 °F -  
Max Temperature 80 °F 56 °F 81 °F (2012)
Min Temperature 51 °F 34 °F 21 °F (2007)
Growing Degree Days 16 (Base 50)    
Moisture  
Dew Point 45 °F    
Average Humidity 51    
Maximum Humidity 82    
Minimum Humidity 26    
Precipitation  
Precipitation 0.00 in - - ()
Sea Level Pressure  
Sea Level Pressure 30.00 in    
Wind  
Wind Speed 10 mph (South)    
Max Wind Speed 32 mph    
Max Gust Speed 40 mph    
Visibility 10 miles    
Events      
Averages and records for this station are not official NWS values.
T = Trace of Precipitation, MM = Missing Value Source: NWS Daily Summary

Daily Weather History Graph

Daily Weather History Graph

Search for Another Location

Airport or City:

Trip Planner

Search our weather history database for the weather conditions in past years. The results will help you decide how hot, cold, wet, or windy it might be!

Date:

Astronomy

Nov. 22, 2012 Rise Set
Actual Time 7:18 AM CST 5:28 PM CST
Civil Twilight 6:51 AM CST 5:55 PM CST
Nautical Twilight 6:20 AM CST 6:26 PM CST
Astronomical Twilight 5:50 AM CST 6:56 PM CST
Moon 2:04 PM CST (11/22) 1:52 AM CST (11/22)
Length of Visible Light 11h 04m
Length of Day
10h 10m
Waxing Gibbous, 71% of the Moon is Illuminated
Nov 22
Waxing Gibbous
Nov 28
Full
Dec 6
Last Quarter
Dec 13
New
Dec 19
First Quarter

Hourly Weather History & Observations

Time (CST) Temp. Dew Point Humidity Pressure Visibility Wind Dir Wind Speed Gust Speed Precip Events Conditions
12:15 AM 62.6 °F 46.4 °F 55% 30.04 in 10.0 mi SSE 10.4 mph - N/A   Clear
12:35 AM 60.8 °F 46.4 °F 59% 30.04 in 10.0 mi SSE 8.1 mph - N/A   Clear
12:55 AM 60.8 °F 46.4 °F 59% 30.04 in 10.0 mi SSE 5.8 mph - N/A   Clear
1:15 AM 60.8 °F 46.4 °F 59% 30.03 in 10.0 mi South 9.2 mph - N/A   Clear
1:35 AM 62.6 °F 46.4 °F 55% 30.03 in 10.0 mi South 12.7 mph - N/A   Clear
1:55 AM 62.6 °F 46.4 °F 55% 30.03 in 10.0 mi South 11.5 mph - N/A   Clear
2:15 AM 62.6 °F 46.4 °F 55% 30.03 in 10.0 mi South 10.4 mph - N/A   Clear
2:35 AM 60.8 °F 46.4 °F 59% 30.02 in 10.0 mi South 11.5 mph - N/A   Clear
2:55 AM 60.8 °F 46.4 °F 59% 30.02 in 10.0 mi South 12.7 mph - N/A   Clear
3:15 AM 60.8 °F 48.2 °F 63% 30.02 in 10.0 mi South 12.7 mph - N/A   Clear
3:35 AM 60.8 °F 48.2 °F 63% 30.01 in 10.0 mi South 10.4 mph - N/A   Clear
4:15 AM 59.0 °F 48.2 °F 67% 30.00 in 10.0 mi South 9.2 mph - N/A   Clear
4:35 AM 59.0 °F 48.2 °F 67% 30.00 in 10.0 mi South 6.9 mph - N/A   Clear
5:15 AM 59.0 °F 48.2 °F 67% 30.00 in 10.0 mi Calm Calm - N/A   Clear
5:35 AM 55.4 °F 48.2 °F 77% 29.99 in 10.0 mi ESE 5.8 mph - N/A   Clear
5:55 AM 55.4 °F 46.4 °F 72% 29.99 in 10.0 mi SE 8.1 mph - N/A   Clear
6:15 AM 55.4 °F 48.2 °F 77% 29.99 in 10.0 mi SE 6.9 mph - N/A   Clear
6:35 AM 53.6 °F 46.4 °F 77% 29.99 in 10.0 mi SE 8.1 mph - N/A   Clear
6:55 AM 53.6 °F 46.4 °F 77% 30.00 in 10.0 mi SE 4.6 mph - N/A   Clear
7:15 AM 53.6 °F 46.4 °F 77% 30.00 in 10.0 mi SE 9.2 mph - N/A   Clear
7:35 AM 53.6 °F 46.4 °F 77% 30.00 in 10.0 mi ESE 5.8 mph - N/A   Clear
7:55 AM 51.8 °F 46.4 °F 82% 30.01 in 10.0 mi ESE 8.1 mph - N/A   Clear
8:15 AM 53.6 °F 48.2 °F 82% 30.02 in 10.0 mi ESE 6.9 mph - N/A   Clear
8:35 AM 53.6 °F 48.2 °F 82% 30.01 in 10.0 mi SE 8.1 mph - N/A   Clear
8:55 AM 55.4 °F 48.2 °F 77% 30.02 in 10.0 mi SE 5.8 mph - N/A   Clear
9:15 AM 59.0 °F 50.0 °F 72% 30.02 in 10.0 mi SSE 9.2 mph - N/A   Clear
9:35 AM 62.6 °F 50.0 °F 63% 30.02 in 10.0 mi SSE 8.1 mph - N/A   Clear
9:55 AM 64.4 °F 50.0 °F 59% 30.01 in 10.0 mi South 10.4 mph - N/A   Clear
10:15 AM 66.2 °F 50.0 °F 56% 30.01 in 10.0 mi South 18.4 mph 21.9 mph N/A   Clear
10:35 AM 68.0 °F 50.0 °F 52% 30.00 in 10.0 mi SSW 18.4 mph 21.9 mph N/A   Clear
10:55 AM 69.8 °F 50.0 °F 49% 30.01 in 10.0 mi SSW 15.0 mph - N/A   Clear
11:15 AM 69.8 °F 50.0 °F 49% 29.99 in 10.0 mi SSW 15.0 mph - N/A   Clear
11:35 AM 71.6 °F 50.0 °F 46% 29.98 in 10.0 mi SSW 15.0 mph - N/A   Clear
12:15 PM 75.2 °F 48.2 °F 38% 29.96 in 10.0 mi SW 16.1 mph 24.2 mph N/A   Clear
12:35 PM 77.0 °F 50.0 °F 39% 29.95 in 10.0 mi SSW 17.3 mph 21.9 mph N/A   Clear
1:15 PM 77.0 °F 48.2 °F 36% 29.94 in 10.0 mi SW 15.0 mph 21.9 mph N/A   Clear
1:35 PM 78.8 °F 46.4 °F 32% 29.93 in 10.0 mi SW 17.3 mph 21.9 mph N/A   Clear
2:15 PM 78.8 °F 44.6 °F 30% 29.93 in 10.0 mi SW 15.0 mph - N/A   Clear
2:35 PM 80.6 °F 44.6 °F 28% 29.92 in 10.0 mi SSW 16.1 mph 20.7 mph N/A   Clear
2:55 PM 80.6 °F 44.6 °F 28% 29.92 in 10.0 mi SW 15.0 mph 19.6 mph N/A   Clear
3:15 PM 80.6 °F 44.6 °F 28% 29.92 in 10.0 mi SW 11.5 mph - N/A   Clear
3:35 PM 80.6 °F 44.6 °F 28% 29.92 in 10.0 mi SW 15.0 mph - N/A   Clear
3:55 PM 80.6 °F 42.8 °F 26% 29.92 in 10.0 mi SW 12.7 mph - N/A   Clear
4:15 PM 80.6 °F 44.6 °F 28% 29.92 in 10.0 mi SW 15.0 mph 18.4 mph N/A   Clear
4:35 PM 80.6 °F 42.8 °F 26% 29.93 in 10.0 mi SW 10.4 mph - N/A   Clear
4:55 PM 78.8 °F 44.6 °F 30% 29.94 in 10.0 mi SW 6.9 mph - N/A   Clear
5:15 PM 77.0 °F 42.8 °F 29% 29.95 in 10.0 mi WSW 9.2 mph - N/A   Clear
5:35 PM 75.2 °F 39.2 °F 27% 29.97 in 10.0 mi NNW 4.6 mph - N/A   Clear
5:55 PM 69.8 °F 37.4 °F 31% 29.97 in 10.0 mi NNW 3.5 mph - N/A   Clear
6:15 PM 69.8 °F 35.6 °F 28% 29.98 in 10.0 mi Calm Calm - N/A   Clear
6:35 PM 68.0 °F 35.6 °F 30% 29.99 in 10.0 mi North 6.9 mph - N/A   Clear
6:55 PM 62.6 °F 37.4 °F 39% 30.02 in 10.0 mi NNW 11.5 mph - N/A   Clear
7:15 PM 62.6 °F 32.0 °F 32% 30.03 in 10.0 mi North 11.5 mph - N/A   Clear
11:15 PM 60.8 °F 32.0 °F 34% 30.21 in 10.0 mi NNE 24.2 mph 40.3 mph N/A   Clear
11:35 PM 59.0 °F 30.2 °F 34% 30.23 in 10.0 mi NNE 27.6 mph 38.0 mph N/A   Clear
11:55 PM 59.0 °F 32.0 °F 36% 30.23 in 7.0 mi NNE 32.2 mph 40.3 mph N/A   Scattered Clouds